This demonstration page uses our WeatherBlox Daily Observations layout. Learn more.

Left ArrowRight Arrow

Hourly Observations for September 8, 2021

Temp ( °F °C ) Dew Point ( °F °C ) Humidity (%) Winds ( mph kmh ) Pressure ( in mb ) Visibility ( mi km ) Precip ( " mm )
12:53 am 00:53 Clear 60 15.6 52 11.1 75 75 W 3 6 30.07 1018 10 16 0.00 0.00
1:53 am 01:53 Clear 58 14.4 51 10.6 78 78 W 6 9 30.08 1019 10 16 0.00 0.00
2:53 am 02:53 Clear 56 13.3 50 10 81 81 W 6 9 30.09 1019 10 16 0.00 0.00
3:53 am 03:53 Clear 55 12.8 50 10 83 83 W 6 9 30.09 1019 10 16 0.00 0.00
4:53 am 04:53 Clear 57 13.9 49 9.4 74 74 W 3 6 30.09 1019 10 16 0.00 0.00
5:53 am 05:53 Clear 55 12.8 49 9.4 80 80 W 6 9 30.09 1019 10 16 0.00 0.00
6:53 am 06:53 Clear 55 12.8 49 9.4 80 80 W 3 6 30.10 1019 10 16 0.00 0.00
7:53 am 07:53 Sunny 56 13.3 50 10 81 81 W 3 6 30.11 1020 10 16 0.00 0.00
8:53 am 08:53 Sunny 62 16.7 53 11.7 73 73 WNW 7 11 30.12 1020 10 16 0.00 0.00
9:53 am 09:53 Sunny 68 20 51 10.6 55 55 WNW 9 15 30.12 1020 10 16 0.00 0.00
10:53 am 10:53 Sunny 73 22.8 50 10 44 44 NW 9 15 30.13 1020 10 16 0.00 0.00
11:53 am 11:53 Sunny 76 24.4 52 11.1 43 43 NW 5 7 30.12 1020 10 16 0.00 0.00
12:53 pm 12:53 Sunny 78 25.6 49 9.4 36 36 W 8 13 30.10 1019 10 16 0.00 0.00
1:53 pm 13:53 Sunny 79 26.1 49 9.4 35 35 WNW 7 11 30.09 1019 10 16 0.00 0.00
2:53 pm 14:53 Sunny 81 27.2 47 8.3 30 30 W 9 15 30.06 1018 10 16 0.00 0.00
3:53 pm 15:53 Sunny 82 27.8 51 10.6 34 34 WNW 8 13 30.03 1017 10 16 0.00 0.00
4:53 pm 16:53 Sunny 83 28.3 51 10.6 33 33 W 6 9 30.02 1017 10 16 0.00 0.00
5:53 pm 17:53 Sunny 82 27.8 49 9.4 32 32 W 9 15 30.02 1017 10 16 0.00 0.00
6:53 pm 18:53 Sunny 81 27.2 51 10.6 35 35 W 3 6 30.01 1016 10 16 0.00 0.00
7:53 pm 19:53 Sunny 76 24.4 53 11.7 45 45 SE 3 6 30.01 1016 9 14 0.00 0.00
8:53 pm 20:53 Mostly Clear 69 20.6 56 13.3 63 63 ESE 5 7 30.02 1017 10 16 0.00 0.00
9:53 pm 21:53 Partly Cloudy 66 18.9 57 13.9 73 73 ENE 5 7 30.04 1017 10 16 0.00 0.00
10:53 pm 22:53 Clear 65 18.3 55 12.8 70 70 E 6 9 30.06 1018 10 16 0.00 0.00
11:53 pm 23:53 Clear 62 16.7 56 13.3 80 80 ENE 6 9 30.06 1018 10 16 0.00 0.00

Powered by AerisWeather